Location: Bamazo
(6.7448°N, 10.8189°W)
Time: 17:29:35
(UTC+00:00)

Cosmos 1932 - Pass Details

Date: 18 September 2020
Orbit: 925 x 1005 km, 65.0° (Epoch: 24 October)

Event Time Altitude Azimuth Distance (km) Brightness Sun altitude
Rises 19:54:19 0° 346° (NNW) 3,645 7.7 -19.0°
Reaches altitude 10° 19:56:58 10° 351° (N) 2,687 7.0 -19.6°
Maximum altitude 20:03:04 54° 68° (ENE) 1,132 4.5 -21.1°
Enters shadow 20:05:14 37° 123° (ESE) 1,422 4.9 -21.7°
